JST457 YBNA-YSSY

Flight info

Callsign JST457
Flight time 0h 58m
Altitude 38000
Route BNA W494 IDNER H98 SANAD H91 IGDAM H652 BOREE
Aircraft A20N/M-SDE2E3FGHIRWXY/LB1

Departure

Time 2026-05-05 06:28
Airport Ballina Byron Gateway Airport (YBNA)

Arrival

Time 2026-05-05 07:26
Airport Sydney Kingsford Smith International Airport (YSSY)
Time Latitude Longitude Altitude Speed Heading
2026-05-05 06:27 -28.79003 153.63121 4231 ft 246 kts 349°
2026-05-05 06:28 -28.77390 153.62329 4874 ft 265 kts 319°
2026-05-05 06:28 -28.76247 153.60646 5653 ft 274 kts 290°
2026-05-05 06:28 -28.75941 153.58524 6671 ft 275 kts 263°
2026-05-05 06:28 -28.76523 153.56459 7650 ft 276 kts 238°
2026-05-05 06:29 -28.77561 153.54595 8658 ft 280 kts 237°
2026-05-05 06:29 -28.78503 153.52636 9724 ft 284 kts 244°
2026-05-05 06:29 -28.79235 153.50509 10539 ft 297 kts 251°
2026-05-05 06:29 -28.79820 153.48155 10952 ft 321 kts 256°
2026-05-05 06:30 -28.80319 153.45589 11411 ft 341 kts 258°
2026-05-05 06:30 -28.80784 153.42924 12307 ft 344 kts 259°
2026-05-05 06:30 -28.81247 153.40226 13185 ft 350 kts 259°
2026-05-05 06:30 -28.81721 153.37485 14059 ft 354 kts 259°
2026-05-05 06:31 -28.82205 153.34724 14918 ft 355 kts 260°
2026-05-05 06:31 -28.82696 153.31954 15807 ft 356 kts 260°
2026-05-05 06:31 -28.83188 153.29177 16633 ft 359 kts 261°
2026-05-05 06:31 -28.83684 153.26382 17450 ft 360 kts 261°
2026-05-05 06:32 -28.84182 153.23573 18251 ft 363 kts 262°
2026-05-05 06:32 -28.84682 153.20750 18974 ft 363 kts 262°
2026-05-05 06:32 -28.85180 153.17931 19761 ft 362 kts 262°
2026-05-05 06:32 -28.85677 153.15116 20509 ft 362 kts 262°
2026-05-05 06:33 -28.86174 153.12292 21255 ft 363 kts 263°
2026-05-05 06:33 -28.86687 153.09470 21981 ft 365 kts 260°
2026-05-05 06:33 -28.87628 153.06749 22707 ft 375 kts 247°
2026-05-05 06:33 -28.89188 153.04314 23421 ft 388 kts 233°
2026-05-05 06:34 -28.91333 153.02340 23998 ft 406 kts 219°
2026-05-05 06:34 -28.93822 153.00750 24533 ft 412 kts 217°
2026-05-05 06:34 -28.96346 152.99171 25042 ft 416 kts 217°
2026-05-05 06:34 -28.98890 152.97576 25535 ft 419 kts 218°
2026-05-05 06:35 -29.01450 152.95964 26024 ft 422 kts 218°
2026-05-05 06:35 -29.04028 152.94333 26497 ft 425 kts 218°
2026-05-05 06:35 -29.06622 152.92687 26972 ft 428 kts 219°
2026-05-05 06:35 -29.09235 152.91027 27430 ft 431 kts 219°
2026-05-05 06:36 -29.11871 152.89351 27867 ft 434 kts 219°
2026-05-05 06:36 -29.14520 152.87666 28312 ft 437 kts 219°
2026-05-05 06:36 -29.17185 152.85967 28759 ft 440 kts 219°
2026-05-05 06:36 -29.19866 152.84259 29182 ft 443 kts 219°
2026-05-05 06:37 -29.22563 152.82539 29554 ft 446 kts 219°
2026-05-05 06:37 -29.25290 152.80798 29897 ft 450 kts 219°
2026-05-05 06:37 -29.27998 152.79069 30254 ft 453 kts 220°
2026-05-05 06:37 -29.30789 152.77288 30601 ft 455 kts 220°
2026-05-05 06:38 -29.33532 152.75535 30937 ft 458 kts 220°
2026-05-05 06:38 -29.36325 152.73750 31273 ft 461 kts 220°
2026-05-05 06:38 -29.39122 152.71962 31732 ft 460 kts 220°
2026-05-05 06:38 -29.41910 152.70180 32214 ft 458 kts 220°
2026-05-05 06:39 -29.44731 152.68379 32666 ft 458 kts 220°
2026-05-05 06:39 -29.47510 152.66601 33087 ft 457 kts 221°
2026-05-05 06:39 -29.50284 152.64823 33489 ft 457 kts 221°
2026-05-05 06:39 -29.53052 152.63045 33936 ft 455 kts 221°
2026-05-05 06:40 -29.55782 152.61292 34306 ft 454 kts 221°
2026-05-05 06:40 -29.58529 152.59523 34677 ft 453 kts 221°
2026-05-05 06:40 -29.61273 152.57759 35080 ft 451 kts 221°
2026-05-05 06:40 -29.64004 152.56004 35469 ft 449 kts 222°
2026-05-05 06:41 -29.66725 152.54252 35802 ft 448 kts 222°
2026-05-05 06:41 -29.69433 152.52503 36175 ft 446 kts 222°
2026-05-05 06:41 -29.72142 152.50756 36424 ft 447 kts 222°
2026-05-05 06:41 -29.74857 152.49000 36644 ft 448 kts 223°
2026-05-05 06:42 -29.77568 152.47252 36982 ft 446 kts 223°
2026-05-05 06:42 -29.80271 152.45509 37288 ft 445 kts 223°
2026-05-05 06:42 -29.82972 152.43765 37618 ft 444 kts 223°
2026-05-05 06:42 -29.85655 152.42035 37979 ft 441 kts 223°
2026-05-05 06:43 -29.88325 152.40310 38100 ft 439 kts 223°
2026-05-05 06:43 -29.93641 152.36858 38110 ft 438 kts 223°
2026-05-05 06:44 -29.98955 152.33397 38122 ft 441 kts 223°
2026-05-05 06:44 -30.04276 152.29944 38122 ft 435 kts 223°
2026-05-05 06:45 -30.09572 152.26489 38119 ft 438 kts 223°
2026-05-05 06:45 -30.14879 152.23033 38128 ft 438 kts 223°
2026-05-05 06:46 -30.20183 152.19594 38129 ft 437 kts 223°
2026-05-05 06:46 -30.25485 152.16136 38127 ft 438 kts 223°
2026-05-05 06:47 -30.30753 152.12694 38126 ft 437 kts 223°
2026-05-05 06:47 -30.36048 152.09230 38127 ft 437 kts 223°
2026-05-05 06:48 -30.41339 152.05765 38123 ft 437 kts 223°
2026-05-05 06:48 -30.46622 152.02296 38121 ft 437 kts 223°
2026-05-05 06:49 -30.51920 151.98818 38121 ft 438 kts 223°
2026-05-05 06:49 -30.57220 151.95334 38117 ft 438 kts 223°
2026-05-05 06:50 -30.62524 151.91842 38117 ft 439 kts 223°
2026-05-05 06:50 -30.67839 151.88340 38135 ft 439 kts 223°
2026-05-05 06:51 -30.73154 151.84841 38121 ft 435 kts 223°
2026-05-05 06:51 -30.78384 151.81383 38120 ft 434 kts 223°
2026-05-05 06:52 -30.83643 151.77898 38117 ft 434 kts 223°
2026-05-05 06:52 -30.88859 151.74441 38118 ft 434 kts 223°
2026-05-05 06:53 -30.94101 151.70963 38132 ft 431 kts 223°
2026-05-05 06:53 -30.99294 151.67514 38140 ft 431 kts 223°
2026-05-05 06:54 -31.04504 151.64046 38129 ft 431 kts 223°
2026-05-05 06:54 -31.09704 151.60585 38134 ft 430 kts 223°
2026-05-05 06:55 -31.14904 151.57115 38134 ft 431 kts 223°
2026-05-05 06:55 -31.20121 151.53636 38137 ft 431 kts 223°
2026-05-05 06:56 -31.25332 151.50155 38140 ft 432 kts 223°
2026-05-05 06:56 -31.30547 151.46667 38143 ft 431 kts 223°
2026-05-05 06:57 -31.35760 151.43174 38142 ft 432 kts 223°
2026-05-05 06:57 -31.41249 151.40063 38144 ft 448 kts 213°
2026-05-05 06:58 -31.47084 151.37480 38150 ft 448 kts 214°
2026-05-05 06:58 -31.52910 151.34880 38142 ft 447 kts 214°
2026-05-05 06:59 -31.58719 151.32276 38144 ft 449 kts 213°
2026-05-05 06:59 -31.64566 151.29649 38145 ft 450 kts 213°
2026-05-05 07:00 -31.70369 151.27049 38145 ft 449 kts 213°
2026-05-05 07:00 -31.76215 151.24423 38145 ft 449 kts 213°
2026-05-05 07:01 -31.81777 151.21914 38152 ft 453 kts 213°
2026-05-05 07:01 -31.87665 151.19261 38130 ft 449 kts 212°
2026-05-05 07:02 -31.93499 151.16630 38144 ft 451 kts 213°
2026-05-05 07:02 -31.99372 151.13993 38140 ft 451 kts 212°
2026-05-05 07:03 -32.05203 151.11384 38142 ft 452 kts 212°
2026-05-05 07:03 -32.11076 151.08747 38135 ft 452 kts 212°
2026-05-05 07:03 -32.14011 151.07428 37922 ft 450 kts 212°
2026-05-05 07:04 -32.16941 151.06110 37311 ft 452 kts 212°
2026-05-05 07:04 -32.19891 151.04777 36382 ft 458 kts 212°
2026-05-05 07:04 -32.22899 151.03414 35305 ft 467 kts 211°
2026-05-05 07:04 -32.25966 151.02026 34271 ft 476 kts 211°
2026-05-05 07:05 -32.29071 151.00627 33244 ft 479 kts 210°
2026-05-05 07:05 -32.32191 150.99222 32257 ft 481 kts 210°
2026-05-05 07:05 -32.35325 150.97809 31255 ft 483 kts 210°
2026-05-05 07:05 -32.38474 150.96386 30262 ft 486 kts 209°
2026-05-05 07:06 -32.41636 150.94955 29210 ft 486 kts 209°
2026-05-05 07:06 -32.44775 150.93537 28487 ft 479 kts 208°
2026-05-05 07:06 -32.46865 150.92684 28001 ft 481 kts 203°
2026-05-05 07:06 -32.50203 150.91947 27314 ft 485 kts 192°
2026-05-05 07:07 -32.53537 150.91924 26657 ft 488 kts 181°
2026-05-05 07:07 -32.56893 150.92473 26019 ft 485 kts 177°
2026-05-05 07:07 -32.60205 150.93065 25387 ft 478 kts 177°
2026-05-05 07:07 -32.63472 150.93638 24752 ft 472 kts 177°
2026-05-05 07:08 -32.66706 150.94210 24202 ft 465 kts 177°
2026-05-05 07:08 -32.69878 150.94775 23643 ft 458 kts 177°
2026-05-05 07:08 -32.73013 150.95333 22928 ft 453 kts 176°
2026-05-05 07:08 -32.76107 150.95884 22240 ft 447 kts 176°
2026-05-05 07:09 -32.79162 150.96423 21576 ft 441 kts 176°
2026-05-05 07:09 -32.82178 150.96958 20920 ft 436 kts 175°
2026-05-05 07:09 -32.85157 150.97488 20303 ft 430 kts 175°
2026-05-05 07:09 -32.88099 150.98011 19679 ft 425 kts 175°
2026-05-05 07:10 -32.91003 150.98526 19059 ft 420 kts 174°
2026-05-05 07:10 -32.93862 150.99033 18583 ft 411 kts 174°
2026-05-05 07:10 -32.96672 150.99531 17889 ft 407 kts 175°
2026-05-05 07:10 -32.99458 151.00005 17170 ft 403 kts 175°
2026-05-05 07:11 -33.02219 151.00475 16475 ft 399 kts 175°
2026-05-05 07:11 -33.04951 151.00952 15801 ft 395 kts 174°
2026-05-05 07:11 -33.07656 151.01434 15166 ft 391 kts 174°
2026-05-05 07:11 -33.10321 151.01916 14729 ft 382 kts 174°
2026-05-05 07:12 -33.12902 151.02387 14449 ft 369 kts 174°
2026-05-05 07:12 -33.15434 151.02857 13880 ft 367 kts 173°
2026-05-05 07:12 -33.17947 151.03335 13317 ft 363 kts 175°
2026-05-05 07:12 -33.20434 151.03774 12777 ft 359 kts 175°
2026-05-05 07:13 -33.22896 151.04204 12237 ft 356 kts 175°
2026-05-05 07:13 -33.25333 151.04645 11711 ft 353 kts 174°
2026-05-05 07:13 -33.27751 151.05107 11182 ft 351 kts 174°
2026-05-05 07:13 -33.30151 151.05583 10649 ft 349 kts 173°
2026-05-05 07:14 -33.32517 151.06052 10399 ft 338 kts 174°
2026-05-05 07:14 -33.34791 151.06503 10263 ft 324 kts 173°
2026-05-05 07:14 -33.36968 151.06939 10146 ft 311 kts 173°
2026-05-05 07:14 -33.39058 151.07360 10016 ft 299 kts 173°
2026-05-05 07:15 -33.41089 151.07761 9710 ft 293 kts 174°
2026-05-05 07:15 -33.43095 151.08146 9361 ft 290 kts 174°
2026-05-05 07:15 -33.45079 151.08519 9019 ft 287 kts 174°
2026-05-05 07:15 -33.47041 151.08887 8656 ft 284 kts 174°
2026-05-05 07:16 -33.48987 151.09256 8289 ft 282 kts 174°
2026-05-05 07:16 -33.50908 151.09622 7966 ft 278 kts 174°
2026-05-05 07:16 -33.52808 151.09985 7618 ft 275 kts 174°
2026-05-05 07:16 -33.54664 151.10345 7292 ft 272 kts 173°
2026-05-05 07:17 -33.56552 151.10709 6922 ft 270 kts 174°
2026-05-05 07:17 -33.58389 151.11060 6619 ft 266 kts 173°
2026-05-05 07:17 -33.60198 151.11407 6425 ft 258 kts 173°
2026-05-05 07:17 -33.61920 151.11740 6160 ft 252 kts 173°
2026-05-05 07:18 -33.63668 151.12084 5830 ft 250 kts 173°
2026-05-05 07:18 -33.65365 151.12420 5567 ft 245 kts 173°
2026-05-05 07:18 -33.67035 151.12751 5317 ft 240 kts 173°
2026-05-05 07:18 -33.68637 151.13070 5214 ft 227 kts 173°
2026-05-05 07:19 -33.70156 151.13369 5017 ft 219 kts 173°
2026-05-05 07:19 -33.71635 151.13657 4699 ft 216 kts 173°
2026-05-05 07:19 -33.73116 151.13943 4388 ft 215 kts 173°
2026-05-05 07:19 -33.74586 151.14227 4090 ft 213 kts 173°
2026-05-05 07:20 -33.76013 151.14505 4023 ft 199 kts 173°
2026-05-05 07:20 -33.77307 151.14760 3993 ft 177 kts 173°
2026-05-05 07:20 -33.78427 151.14983 3989 ft 149 kts 173°
2026-05-05 07:20 -33.79378 151.15148 3903 ft 131 kts 181°
2026-05-05 07:21 -33.80280 151.15272 3638 ft 129 kts 172°
2026-05-05 07:21 -33.81156 151.15502 3281 ft 129 kts 170°
2026-05-05 07:21 -33.82032 151.15645 3043 ft 126 kts 178°
2026-05-05 07:21 -33.82934 151.15742 2999 ft 131 kts 174°
2026-05-05 07:22 -33.83827 151.15927 3003 ft 131 kts 171°
2026-05-05 07:22 -33.84715 151.16162 2929 ft 130 kts 170°
2026-05-05 07:22 -33.85608 151.16468 2533 ft 136 kts 165°
2026-05-05 07:22 -33.86517 151.16733 2158 ft 133 kts 172°
2026-05-05 07:23 -33.87433 151.16871 1779 ft 133 kts 173°
2026-05-05 07:23 -33.88328 151.17077 1436 ft 128 kts 168°
2026-05-05 07:23 -33.89166 151.17318 1198 ft 120 kts 167°
2026-05-05 07:23 -33.89948 151.17548 1021 ft 118 kts 169°
2026-05-05 07:24 -33.90781 151.17765 887 ft 121 kts 169°
2026-05-05 07:24 -33.91594 151.17959 717 ft 116 kts 168°
2026-05-05 07:24 -33.92378 151.18170 486 ft 116 kts 167°
2026-05-05 07:24 -33.93181 151.18367 408 ft 117 kts 167°
2026-05-05 07:25 -33.93995 151.18581 245 ft 118 kts 167°
2026-05-05 07:25 -33.94784 151.18783 100 ft 117 kts 165°
2026-05-05 07:25 -33.95578 151.18993 26 ft 110 kts 166°
2026-05-05 07:25 -33.96165 151.19143 27 ft 65 kts 168°
2026-05-05 07:26 -33.96513 151.19212 26 ft 46 kts 178°
2026-05-05 07:26 -33.96693 151.19170 27 ft 11 kts 210°
2026-05-05 07:26 -33.96706 151.19103 29 ft 9 kts 303°
2026-05-05 07:26 -33.96644 151.19065 29 ft 12 kts 347°
2026-05-05 07:27 -33.96547 151.19040 29 ft 17 kts 350°
2026-05-05 07:27 -33.96392 151.19001 30 ft 29 kts 347°
2026-05-05 07:27 -33.96156 151.18936 30 ft 38 kts 347°
2026-05-05 07:27 -33.95896 151.18870 30 ft 34 kts 348°
2026-05-05 07:28 -33.95654 151.18808 30 ft 37 kts 348°
2026-05-05 07:28 -33.95399 151.18740 29 ft 39 kts 348°
2026-05-05 07:28 -33.95197 151.18634 30 ft 32 kts 315°
2026-05-05 07:28 -33.95117 151.18432 30 ft 28 kts 263°
2026-05-05 07:29 -33.95155 151.18211 30 ft 21 kts 257°
2026-05-05 07:29 -33.95161 151.18178 30 ft 0 kts 258°
2026-05-05 07:29 -33.95163 151.18170 30 ft 5 kts 258°
2026-05-05 07:29 -33.95182 151.18055 30 ft 20 kts 258°
2026-05-05 07:30 -33.95111 151.17946 30 ft 19 kts 351°
2026-05-05 07:30 -33.94809 151.17867 29 ft 26 kts 348°
2026-05-05 07:30 -33.94621 151.17818 29 ft 29 kts 348°
2026-05-05 07:31 -33.94416 151.17760 30 ft 31 kts 345°
2026-05-05 07:31 -33.94197 151.17695 29 ft 34 kts 346°
2026-05-05 07:31 -33.93962 151.17627 28 ft 26 kts 347°
2026-05-05 07:31 -33.93865 151.17601 29 ft 14 kts 347°
2026-05-05 07:32 -33.93754 151.17572 29 ft 18 kts 348°
2026-05-05 07:32 -33.93649 151.17613 29 ft 16 kts 72°
2026-05-05 07:32 -33.93654 151.17753 30 ft 18 kts 102°
2026-05-05 07:32 -33.93579 151.17821 30 ft 14 kts 350°
2026-05-05 07:33 -33.93564 151.17769 30 ft 8 kts 281°
2026-05-05 07:33 -33.93562 151.17760 30 ft 0 kts 279°